Location: White Rock
(35.8256°N, 106.1876°W)
Time: 17:03:30
(UTC-06:00)

Hubble Space Telescope - Visible Passes

Search period start: 22 September 2018 00:00
Search period end: 02 October 2018 00:00
Orbit: 537 x 541 km, 28.5° (Epoch: 22 September)

Date Brightness Start Highest point End Pass type
(mag) Time Alt. Az. Time Alt. Az. Time Alt. Az.
22 Sep 2.1 19:26:50 10° WSW 19:30:25 29° S 19:34:00 10° ESE visible
22 Sep 2.9 21:08:00 10° WSW 21:09:50 18° SW 21:09:50 18° SW visible
23 Sep 2.9 20:57:45 10° WSW 21:00:00 18° SSW 21:00:00 18° SSW visible
24 Sep 2.9 20:47:36 10° WSW 20:50:11 16° SSW 20:50:11 16° SSW visible
25 Sep 3.1 20:37:36 10° SW 20:39:42 14° SSW 20:40:26 13° S visible
26 Sep 3.3 20:27:57 10° SW 20:29:11 11° SSW 20:30:25 10° S visible
